Location: Austin
(30.3000°N, 97.7500°W)
Time: 02:45:42
(UTC-05:00)

Okean-O - Pass Details

Date: 15 May 2024
Orbit: 633 x 635 km, 98.0° (Epoch: 29 May)

Event Time Altitude Azimuth Distance (km) Brightness Sun altitude
Exits shadow 22:25:43 52° 215° (SW) 789 2.9 -24.0°
Maximum altitude 22:26:28 61° 259° (W) 721 2.9 -24.1°
Drops below altitude 10° 22:30:49 10° 340° (NNW) 2,021 6.0 -24.8°
Sets 22:33:03 0° 344° (NNW) 2,932 7.0 -25.1°
